Showing default

ICEYE-X11, 48918

Orbit data source: Space-Track

ICEYE-X11, 48918 is a payload satellite owned by ICEYE (FI) in SSO that was launched on Wed, 30 Jun 2021 UTC via an FALCON 9 launch vehicle from the Air Force Eastern Test Range (AFETR). Payload-class satellites include a variety of spacecraft equipped with specific instruments for various scientific and technological missions. These include communications satellites like Starlink; space stations such as the ISS; scientific satellites like the Hubble; Earth observation satellites from companies like Planet Labs, Umbra, and HawkEye 360; GPS; miniature CubeSats for education and research; and military/defense satellites.

Loading next visibility...
Identifier
48918, 2021-059AR
Orbit
SSO
Country
Flag of FIFI / FIN
Related business
Manufacturer
ICEYE
Mission
Operational Commercial Radar Imaging
Bus & Motor
ICEYE, Unknown motor
Mass
80 kg wet, 80 kg dry
Launch date (UTC)
2021-06-30 (4 years ago)
Launch vehicle
FALCON 9
Launch site
Air Force Eastern Test Range (AFETR)
Object type
Payload
Rocket body
Debris
Shape & HBR
Box + 1 Pan, 1.6 m
Radar Cross Section
1.837 m², Medium (>0.1 m² and < 1m²)

Expand to show TLE details & history
Last TLE update: 13 hours ago

TLE from 13 hours ago
0 ICEYE-X11
1 48918U 21059AR  25308.91575351  .00043411  00000-0  63146-3 0  9997
2 48918  97.6607 121.3713 0007450  88.1706 272.0401 15.55615262242733
Epoch: 2025-11-04T21:58Z
TLE epoch observation values (Epoch: 2025-11-04T21:58:41.103Z)
Latitude
0.00001°
Longitude
107.30412°
Altitude
403.32 km
Speed
7.669 km/s
True Right ascension
08h 05m 29s
True Declination
0° 00' 00"
Sunlit
Object was in daylight at epoch
Visualization orbit readout
Latitude
Unknown
Longitude
Unknown
Altitude
Unknown
Speed
Unknown
Apparent Right ascension
Unknown
Apparent Declination
Unknown
Sunlit
N/A
Visualization observer readout
Local Sidereal Time
06:35:17
Azimuth
Unknown
Elevation
Unknown
Doppler factor
Unknown
Orbital elements
Apogee altitude
402.342 km
Perigee altitude
392.247 km
Semi-major axis
6,775.432 km
Eccentricity
0.00075
Inclination
97.6607°
RAAN
121.3713°
Arg. of periapsis
88.1706°
True anomaly
271.95478°
Mean anomaly
272.0401°
Eccentric anomaly
271.99744°
Mean motion
3.89169 °/min
Orbital period
92.5 mins
BSTAR
0.00063146
Loading maneuver chart data...
Computing Atmospheric mass density...

Documentation

Showing up to 5 results
|